User: anonymous
Location: Unspecified
(0.0000°N, 0.0000°E)
Time: 19:30:48
(UTC+02:00)
Language:

CZ-4 DEB - Orbit

View from above orbital plane
View from above orbital plane
View from above satellite
View from above satellite

Ground track
Ground track

The orbit data is extracted from the following two-line orbital elements,

1 29508U 06046D   14244.73661157  .00012559  00000-0  70846-3 0  6572
2 29508 097.7055 252.4015 0007262 052.8134 002.1115 15.13285574428890
Epoch (UTC): 01 September 2014 17:40:43
Eccentricity: 0.0007262
inclination: 97.7055°
perigee height: 521 km
apogee height: 531 km
right ascension of ascending node: 252.4015°
argument of perigee: 52.8134°
revolutions per day: 15.13285574
mean anomaly at epoch: 2.1115°
orbit number at epoch: 42889

The dashed part of the orbit path shows where the satellite is in the earth's shadow,  

DLR